QPF
0.06 0.06 0.07 0.07 0.06 0.05 0.04 0.04 0.04 0.03 0.03 0.02 0.01 0.01 0.02 0.02 0.02 0.01 0.01 0.01 0.01 0.00 0.00 0.00 0.00 0.00 0.01 0.01 0.01 0.02 0.02 0.02 0.02 0.02 0.02 0.02 0.03 0.04
0.06 0.06 0.06 0.06 0.07 0.07 0.05 0.05 0.05 0.05 0.04 0.02 0.01 0.01 0.03 0.03 0.02 0.01 0.01 0.02 0.01 0.01 0.01 0.01 0.01 0.01 0.01 0.01 0.01 0.01 0.02 0.02 0.03 0.03 0.03 0.02 0.02 0.02
0.05 0.05 0.05 0.06 0.08 0.08 0.07 0.07 0.06 0.06 0.06 0.02 0.01 0.02 0.04 0.05 0.03 0.03 0.03 0.04 0.04 0.03 0.02 0.01 0.01 0.01 0.02 0.01 0.02 0.02 0.02 0.02 0.02 0.03 0.03 0.03 0.02 0.02
0.05 0.05 0.05 0.06 0.08 0.09 0.07 0.06 0.06 0.07 0.07 0.05 0.03 0.03 0.03 0.05 0.05 0.04 0.03 0.03 0.03 0.04 0.03 0.01 0.02 0.02 0.02 0.01 0.02 0.02 0.02 0.02 0.02 0.03 0.02 0.02 0.02 0.02
0.06 0.07 0.07 0.07 0.08 0.08 0.07 0.06 0.06 0.06 0.08 0.07 0.05 0.04 0.04 0.07 0.07 0.04 0.04 0.04 0.03 0.02 0.02 0.02 0.01 0.01 0.01 0.01 0.01 0.02 0.02 0.02 0.02 0.02 0.02 0.02 0.02 0.02
0.07 0.06 0.05 0.05 0.05 0.04 0.04 0.05 0.05 0.05 0.06 0.07 0.06 0.05 0.07 0.08 0.08 0.05 0.05 0.06 0.04 0.03 0.02 0.02 0.01 0.01 0.02 0.02 0.02 0.02 0.02 0.02 0.02 0.02 0.02 0.03 0.03 0.02
0.03 0.03 0.03 0.02 0.02 0.02 0.02 0.02 0.03 0.04 0.04 0.05 0.05 0.06 0.07 0.08 0.07 0.06 0.07 0.07 0.06 0.05 0.05 0.05 0.04 0.03 0.02 0.02 0.02 0.02 0.02 0.02 0.02 0.03 0.02 0.02 0.02 0.02
0.03 0.03 0.03 0.02 0.01 0.01 0.01 0.01 0.01 0.02 0.03 0.03 0.04 0.05 0.05 0.07 0.07 0.06 0.06 0.06 0.05 0.05 0.05 0.03 0.04 0.05 0.04 0.03 0.03 0.02 0.02 0.02 0.02 0.02 0.03 0.03 0.02 0.02
0.04 0.04 0.03 0.01 0.01 0.01 0.01 0.01 0.00 0.01 0.01 0.02 0.04 0.04 0.05 0.05 0.07 0.07 0.07 0.07 0.06 0.05 0.06 0.05 0.05 0.05 0.05 0.05 0.04 0.02 0.02 0.02 0.02 0.03 0.02 0.02 0.02 0.02
0.03 0.03 0.02 0.01 0.01 0.01 0.01 0.01 0.01 0.02 0.02 0.02 0.03 0.03 0.03 0.05 0.06 0.05 0.05 0.05 0.05 0.05 0.06 0.05 0.04 0.04 0.03 0.04 0.04 0.03 0.02 0.02 0.02 0.02 0.02 0.02 0.02 0.02
0.02 0.02 0.01 0.01 0.01 0.01 0.01 0.01 0.02 0.02 0.01 0.01 0.02 0.02 0.02 0.02 0.03 0.03 0.04 0.04 0.04 0.05 0.06 0.06 0.04 0.03 0.04 0.04 0.04 0.03 0.02 0.02 0.02 0.03 0.03 0.03 0.02 0.02
0.01 0.01 0.01 0.01 0.01 0.01 0.02 0.02 0.02 0.02 0.02 0.02 0.02 0.02 0.02 0.02 0.02 0.03 0.04 0.05 0.05 0.05 0.05 0.04 0.04 0.03 0.04 0.05 0.05 0.05 0.04 0.05 0.03 0.03 0.04 0.03 0.02 0.02
0.01 0.02 0.02 0.01 0.01 0.01 0.02 0.02 0.02 0.02 0.02 0.03 0.02 0.02 0.02 0.03 0.04 0.04 0.04 0.05 0.05 0.04 0.03 0.03 0.03 0.03 0.04 0.04 0.06 0.06 0.05 0.05 0.05 0.05 0.04 0.04 0.03 0.02
0.02 0.02 0.02 0.01 0.01 0.01 0.02 0.02 0.02 0.02 0.03 0.03 0.03 0.02 0.02 0.02 0.03 0.04 0.04 0.04 0.04 0.03 0.03 0.04 0.04 0.04 0.05 0.05 0.05 0.05 0.05 0.06 0.05 0.07 0.06 0.05 0.04 0.03
0.02 0.01 0.01 0.01 0.01 0.02 0.02 0.02 0.02 0.02 0.02 0.03 0.02 0.02 0.03 0.03 0.03 0.03 0.04 0.04 0.03 0.03 0.02 0.03 0.04 0.04 0.04 0.05 0.05 0.05 0.05 0.05 0.04 0.05 0.06 0.06 0.07 0.07
0.02 0.02 0.01 0.02 0.02 0.02 0.02 0.02 0.01 0.02 0.02 0.02 0.03 0.03 0.03 0.03 0.03 0.03 0.03 0.03 0.03 0.02 0.03 0.03 0.03 0.03 0.03 0.03 0.04 0.04 0.05 0.05 0.04 0.04 0.04 0.06 0.08 0.08
0.02 0.03 0.03 0.03 0.03 0.03 0.03 0.03 0.02 0.02 0.01 0.01 0.02 0.02 0.02 0.02 0.02 0.03 0.04 0.04 0.03 0.03 0.03 0.03 0.03 0.02 0.02 0.02 0.02 0.03 0.03 0.05 0.06 0.07 0.07 0.08 0.09 0.09
0.03 0.03 0.03 0.03 0.03 0.03 0.03 0.03 0.03 0.03 0.02 0.01 0.01 0.01 0.01 0.01 0.02 0.03 0.04 0.04 0.04 0.04 0.03 0.03 0.03 0.03 0.03 0.02 0.02 0.02 0.03 0.04 0.05 0.06 0.08 0.09 0.09 0.09
0.03 0.03 0.02 0.02 0.01 0.02 0.02 0.02 0.02 0.03 0.02 0.01 0.01 0.01 0.01 0.02 0.03 0.03 0.04 0.04 0.04 0.04 0.04 0.04 0.04 0.05 0.05 0.05 0.04 0.03 0.04 0.05 0.06 0.06 0.06 0.07 0.08 0.09
0.01 0.01 0.01 0.01 0.01 0.01 0.01 0.02 0.02 0.02 0.02 0.02 0.02 0.02 0.02 0.02 0.02 0.02 0.02 0.02 0.02 0.02 0.02 0.03 0.04 0.04 0.05 0.04 0.04 0.04 0.04 0.05 0.06 0.07 0.06 0.07 0.08 0.07
0.01 0.01 0.01 0.01 0.01 0.01 0.01 0.01 0.01 0.02 0.04 0.05 0.03 0.02 0.02 0.01 0.01 0.01 0.02 0.02 0.01 0.02 0.02 0.02 0.03 0.02 0.03 0.04 0.04 0.04 0.04 0.05 0.06 0.06 0.06 0.06 0.07 0.08
0.01 0.02 0.03 0.04 0.04 0.03 0.01 0.01 0.02 0.03 0.04 0.03 0.02 0.02 0.02 0.02 0.01 0.01 0.02 0.01 0.01 0.01 0.02 0.02 0.03 0.03 0.03 0.05 0.04 0.04 0.05 0.05 0.06 0.07 0.06 0.06 0.06 0.06
0.02 0.02 0.03 0.05 0.04 0.03 0.02 0.02 0.02 0.03 0.03 0.02 0.03 0.03 0.03 0.02 0.01 0.01 0.01 0.01 0.01 0.01 0.01 0.02 0.02 0.02 0.02 0.03 0.03 0.04 0.04 0.05 0.06 0.06 0.06 0.06 0.06 0.05
MSLP
1010.08 1009.91 1009.76 1009.61 1009.44 1009.22 1008.95 1008.60 1008.17 1007.66 1007.08 1006.45 1005.80 1005.15 1004.52 1003.95 1003.46 1003.07 1002.78 1002.61 1002.55 1002.57 1002.66 1002.78 1002.91 1003.03 1003.12 1003.18 1003.22 1003.26 1003.31 1003.41 1003.57 1003.82 1004.14 1004.55 1005.03 1005.57
1009.83 1009.61 1009.39 1009.18 1008.97 1008.72 1008.45 1008.11 1007.71 1007.24 1006.71 1006.11 1005.47 1004.81 1004.16 1003.54 1003.00 1002.55 1002.22 1002.00 1001.91 1001.91 1001.99 1002.10 1002.23 1002.34 1002.42 1002.45 1002.45 1002.44 1002.45 1002.50 1002.63 1002.86 1003.19 1003.62 1004.15 1004.76
1009.69 1009.40 1009.11 1008.84 1008.56 1008.28 1007.98 1007.64 1007.26 1006.82 1006.32 1005.75 1005.12 1004.46 1003.80 1003.16 1002.58 1002.09 1001.71 1001.47 1001.35 1001.34 1001.41 1001.52 1001.64 1001.73 1001.78 1001.78 1001.74 1001.68 1001.64 1001.65 1001.75 1001.96 1002.30 1002.76 1003.35 1004.03
1009.66 1009.32 1008.97 1008.63 1008.30 1007.98 1007.66 1007.31 1006.94 1006.51 1006.03 1005.48 1004.86 1004.20 1003.52 1002.87 1002.26 1001.74 1001.35 1001.08 1000.95 1000.93 1000.99 1001.09 1001.20 1001.27 1001.30 1001.25 1001.17 1001.06 1000.97 1000.94 1001.02 1001.22 1001.56 1002.06 1002.69 1003.44
1009.73 1009.36 1008.97 1008.59 1008.22 1007.87 1007.52 1007.17 1006.80 1006.38 1005.90 1005.36 1004.75 1004.08 1003.40 1002.72 1002.10 1001.57 1001.16 1000.89 1000.75 1000.73 1000.79 1000.89 1000.98 1001.03 1001.03 1000.95 1000.82 1000.68 1000.55 1000.49 1000.54 1000.73 1001.08 1001.60 1002.27 1003.07
1009.85 1009.46 1009.06 1008.66 1008.28 1007.91 1007.56 1007.21 1006.83 1006.41 1005.94 1005.40 1004.78 1004.12 1003.42 1002.74 1002.12 1001.59 1001.18 1000.91 1000.78 1000.77 1000.83 1000.92 1001.01 1001.05 1001.02 1000.92 1000.77 1000.59 1000.44 1000.36 1000.40 1000.59 1000.94 1001.47 1002.15 1002.96
1009.94 1009.56 1009.17 1008.78 1008.40 1008.04 1007.70 1007.34 1006.97 1006.56 1006.08 1005.54 1004.92 1004.25 1003.56 1002.89 1002.28 1001.76 1001.37 1001.12 1001.01 1001.01 1001.09 1001.19 1001.28 1001.32 1001.28 1001.17 1001.01 1000.82 1000.67 1000.58 1000.62 1000.80 1001.15 1001.67 1002.34 1003.14
1009.96 1009.60 1009.23 1008.87 1008.51 1008.17 1007.83 1007.49 1007.13 1006.72 1006.24 1005.70 1005.08 1004.42 1003.75 1003.09 1002.50 1002.02 1001.67 1001.45 1001.38 1001.41 1001.50 1001.62 1001.72 1001.77 1001.74 1001.64 1001.49 1001.31 1001.17 1001.10 1001.15 1001.33 1001.68 1002.18 1002.81 1003.56
1009.88 1009.55 1009.20 1008.86 1008.53 1008.21 1007.89 1007.56 1007.20 1006.80 1006.33 1005.79 1005.18 1004.54 1003.89 1003.27 1002.73 1002.29 1001.99 1001.82 1001.78 1001.85 1001.97 1002.11 1002.23 1002.29 1002.28 1002.21 1002.08 1001.95 1001.84 1001.80 1001.87 1002.06 1002.40 1002.87 1003.46 1004.13
1009.74 1009.41 1009.09 1008.76 1008.44 1008.14 1007.83 1007.50 1007.15 1006.75 1006.28 1005.75 1005.17 1004.55 1003.94 1003.37 1002.87 1002.49 1002.24 1002.12 1002.12 1002.21 1002.36 1002.52 1002.66 1002.74 1002.76 1002.72 1002.64 1002.56 1002.50 1002.51 1002.61 1002.82 1003.15 1003.59 1004.12 1004.71
1009.59 1009.26 1008.93 1008.60 1008.28 1007.97 1007.66 1007.33 1006.97 1006.56 1006.10 1005.58 1005.02 1004.43 1003.86 1003.34 1002.90 1002.57 1002.36 1002.27 1002.30 1002.41 1002.57 1002.74 1002.88 1002.98 1003.03 1003.03 1003.00 1002.96 1002.97 1003.03 1003.17 1003.41 1003.74 1004.15 1004.62 1005.14
1009.49 1009.14 1008.78 1008.43 1008.09 1007.76 1007.42 1007.08 1006.70 1006.29 1005.83 1005.32 1004.77 1004.22 1003.69 1003.20 1002.80 1002.51 1002.32 1002.26 1002.29 1002.39 1002.54 1002.69 1002.82 1002.92 1002.98 1003.01 1003.02 1003.04 1003.10 1003.21 1003.40 1003.67 1004.00 1004.39 1004.82 1005.27
1009.49 1009.10 1008.70 1008.31 1007.93 1007.56 1007.19 1006.82 1006.42 1005.99 1005.53 1005.02 1004.50 1003.97 1003.46 1003.00 1002.62 1002.34 1002.15 1002.07 1002.07 1002.14 1002.24 1002.35 1002.45 1002.52 1002.58 1002.62 1002.66 1002.72 1002.83 1002.99 1003.22 1003.51 1003.85 1004.23 1004.62 1005.02
1009.57 1009.13 1008.68 1008.24 1007.81 1007.40 1006.99 1006.59 1006.17 1005.73 1005.26 1004.76 1004.25 1003.73 1003.23 1002.78 1002.40 1002.10 1001.89 1001.76 1001.71 1001.70 1001.73 1001.77 1001.81 1001.84 1001.86 1001.89 1001.94 1002.03 1002.17 1002.36 1002.62 1002.92 1003.27 1003.63 1004.00 1004.36
1009.67 1009.18 1008.69 1008.20 1007.73 1007.28 1006.84 1006.42 1005.99 1005.54 1005.07 1004.58 1004.07 1003.56 1003.07 1002.61 1002.21 1001.87 1001.60 1001.40 1001.27 1001.17 1001.10 1001.05 1001.01 1000.98 1000.95 1000.95 1000.99 1001.08 1001.22 1001.43 1001.69 1001.99 1002.33 1002.67 1003.01 1003.33
1009.72 1009.19 1008.66 1008.14 1007.64 1007.17 1006.73 1006.30 1005.87 1005.43 1004.97 1004.49 1004.00 1003.49 1002.99 1002.52 1002.08 1001.69 1001.36 1001.08 1000.85 1000.65 1000.48 1000.33 1000.20 1000.09 1000.00 999.96 999.96 1000.03 1000.15 1000.34 1000.59 1000.87 1001.18 1001.49 1001.78 1002.07
1009.64 1009.09 1008.53 1008.00 1007.51 1007.05 1006.62 1006.22 1005.81 1005.40 1004.97 1004.51 1004.03 1003.53 1003.03 1002.54 1002.07 1001.63 1001.23 1000.86 1000.54 1000.25 999.98 999.74 999.52 999.33 999.18 999.08 999.04 999.07 999.16 999.31 999.51 999.74 999.99 1000.24 1000.48 1000.70
1009.39 1008.83 1008.29 1007.78 1007.32 1006.91 1006.52 1006.16 1005.81 1005.44 1005.05 1004.63 1004.17 1003.69 1003.19 1002.68 1002.19 1001.71 1001.25 1000.83 1000.43 1000.06 999.72 999.40 999.11 998.86 998.65 998.50 998.40 998.37 998.40 998.49 998.62 998.78 998.95 999.12 999.27 999.42
1008.98 1008.46 1007.96 1007.51 1007.12 1006.77 1006.46 1006.16 1005.87 1005.56 1005.22 1004.84 1004.42 1003.96 1003.47 1002.96 1002.45 1001.95 1001.46 1001.00 1000.56 1000.14 999.75 999.39 999.05 998.75 998.49 998.29 998.14 998.05 998.01 998.02 998.06 998.12 998.19 998.25 998.31 998.35
1008.51 1008.05 1007.63 1007.26 1006.96 1006.70 1006.47 1006.26 1006.05 1005.80 1005.51 1005.17 1004.78 1004.34 1003.87 1003.37 1002.86 1002.35 1001.86 1001.38 1000.93 1000.50 1000.09 999.70 999.34 999.02 998.73 998.48 998.28 998.12 998.00 997.92 997.87 997.82 997.78 997.72 997.66 997.60
1008.07 1007.70 1007.38 1007.13 1006.93 1006.77 1006.65 1006.52 1006.37 1006.18 1005.94 1005.63 1005.26 1004.84 1004.38 1003.89 1003.39 1002.90 1002.42 1001.95 1001.51 1001.09 1000.69 1000.31 999.95 999.61 999.30 999.02 998.77 998.55 998.36 998.19 998.03 997.88 997.72 997.54 997.36 997.18
1007.75 1007.50 1007.30 1007.17 1007.09 1007.05 1007.01 1006.96 1006.87 1006.73 1006.51 1006.22 1005.86 1005.45 1004.99 1004.51 1004.03 1003.55 1003.09 1002.65 1002.24 1001.85 1001.48 1001.12 1000.77 1000.44 1000.11 999.81 999.52 999.24 998.98 998.72 998.47 998.21 997.94 997.66 997.37 997.07
1007.60 1007.48 1007.43 1007.43 1007.47 1007.52 1007.57 1007.59 1007.54 1007.41 1007.21 1006.92 1006.55 1006.13 1005.67 1005.19 1004.72 1004.26 1003.82 1003.42 1003.05 1002.69 1002.36 1002.03 1001.70 1001.38 1001.05 1000.72 1000.39 1000.07 999.74 999.41 999.07 998.72 998.36 997.98 997.60 997.20
Thickness
5667 5665 5663 5662 5661 5659 5657 5653 5646 5641 5642 5646 5647 5648 5647 5645 5643 5641 5639 5637 5635 5634 5633 5632 5631 5630 5630 5630 5630 5630 5630 5631 5631 5632 5633 5634 5636 5637
5663 5660 5658 5657 5655 5653 5651 5648 5645 5639 5635 5638 5638 5639 5638 5637 5635 5633 5632 5630 5629 5628 5627 5625 5625 5624 5624 5623 5623 5623 5624 5624 5625 5626 5627 5628 5629 5630
5658 5656 5654 5652 5650 5647 5644 5641 5638 5634 5629 5630 5632 5632 5630 5628 5627 5625 5624 5622 5621 5620 5620 5619 5618 5617 5617 5617 5617 5617 5617 5618 5619 5619 5620 5621 5623 5624
5653 5651 5649 5648 5644 5641 5637 5634 5631 5628 5624 5620 5621 5622 5621 5620 5619 5617 5616 5615 5614 5614 5613 5612 5612 5611 5611 5611 5611 5611 5611 5611 5612 5612 5614 5615 5616 5616
5649 5646 5644 5642 5638 5635 5631 5628 5624 5622 5618 5614 5613 5614 5614 5613 5611 5609 5609 5607 5607 5607 5606 5605 5605 5604 5604 5605 5604 5604 5604 5604 5605 5605 5605 5606 5607 5609
5645 5643 5640 5636 5632 5629 5626 5622 5618 5614 5612 5609 5607 5606 5605 5605 5602 5599 5598 5599 5598 5599 5598 5598 5598 5598 5598 5598 5598 5598 5597 5597 5597 5598 5598 5599 5599 5600
5641 5639 5636 5633 5629 5624 5621 5616 5612 5608 5605 5603 5600 5599 5597 5594 5592 5591 5589 5590 5590 5590 5589 5589 5589 5589 5590 5590 5590 5590 5590 5589 5589 5590 5591 5591 5591 5592
5636 5634 5632 5629 5625 5620 5616 5612 5607 5603 5600 5597 5594 5591 5589 5588 5586 5584 5582 5580 5580 5582 5580 5581 5582 5582 5583 5584 5584 5584 5583 5582 5582 5582 5582 5582 5582 5583
5633 5630 5628 5626 5621 5617 5613 5609 5605 5601 5597 5592 5589 5587 5585 5583 5580 5577 5575 5572 5571 5573 5572 5573 5575 5574 5576 5577 5577 5576 5576 5575 5574 5574 5574 5574 5574 5574
5630 5627 5624 5620 5617 5612 5609 5605 5601 5598 5595 5591 5587 5585 5582 5579 5576 5572 5570 5568 5568 5568 5567 5564 5567 5567 5569 5568 5569 5568 5568 5567 5566 5566 5566 5565 5565 5565
5628 5625 5621 5616 5611 5607 5604 5601 5598 5595 5594 5590 5586 5582 5579 5576 5572 5567 5564 5562 5561 5561 5561 5558 5558 5559 5560 5560 5560 5560 5559 5559 5559 5558 5558 5558 5557 5557
5625 5620 5616 5612 5607 5603 5599 5596 5593 5591 5589 5586 5583 5580 5577 5574 5570 5564 5560 5556 5554 5554 5555 5552 5551 5550 5550 5552 5552 5552 5551 5551 5551 5551 5551 5550 5549 5548
5621 5618 5613 5609 5605 5601 5596 5593 5590 5587 5584 5582 5580 5577 5574 5571 5568 5564 5560 5556 5551 5549 5549 5547 5544 5542 5541 5542 5544 5544 5544 5544 5544 5544 5543 5543 5542 5542
5616 5614 5610 5606 5602 5598 5594 5591 5588 5584 5582 5579 5576 5573 5570 5568 5565 5563 5559 5556 5552 5548 5546 5543 5539 5537 5535 5535 5535 5537 5538 5538 5537 5537 5536 5536 5536 5535
5612 5609 5605 5602 5599 5596 5593 5588 5585 5582 5579 5576 5572 5570 5568 5565 5563 5560 5558 5554 5550 5547 5544 5541 5537 5534 5531 5529 5529 5529 5530 5530 5530 5529 5529 5528 5528 5528
5607 5605 5602 5599 5596 5593 5590 5587 5583 5580 5576 5573 5570 5567 5565 5563 5559 5557 5553 5550 5547 5544 5542 5539 5536 5531 5527 5526 5524 5523 5523 5523 5523 5523 5522 5521 5521 5520
5603 5602 5601 5599 5595 5591 5588 5585 5581 5577 5573 5570 5567 5564 5561 5558 5556 5553 5549 5546 5542 5539 5537 5535 5532 5528 5524 5520 5518 5517 5517 5517 5517 5516 5515 5515 5515 5514
5601 5601 5599 5597 5593 5590 5586 5582 5578 5574 5570 5567 5564 5560 5557 5555 5552 5549 5546 5542 5538 5535 5532 5530 5526 5523 5520 5517 5513 5511 5511 5510 5511 5510 5510 5508 5508 5509
5600 5599 5597 5594 5591 5588 5584 5580 5575 5572 5568 5564 5560 5557 5554 5551 5549 5545 5542 5538 5534 5532 5529 5526 5521 5517 5513 5510 5509 5506 5504 5504 5504 5504 5504 5503 5502 5503
5600 5598 5595 5592 5589 5585 5581 5577 5572 5568 5564 5560 5557 5553 5550 5547 5544 5541 5538 5534 5531 5528 5525 5521 5517 5512 5507 5504 5502 5502 5501 5499 5499 5498 5498 5498 5497 5498
5600 5597 5594 5590 5586 5582 5578 5573 5569 5564 5560 5556 5553 5550 5547 5544 5541 5538 5535 5531 5528 5525 5521 5517 5513 5510 5506 5503 5500 5499 5498 5496 5495 5494 5494 5494 5494 5494
5597 5594 5591 5587 5583 5579 5575 5571 5567 5562 5558 5553 5549 5547 5545 5542 5539 5536 5533 5529 5526 5522 5518 5515 5512 5508 5504 5500 5498 5497 5496 5495 5493 5492 5491 5490 5489 5490
5594 5591 5588 5583 5580 5576 5572 5569 5564 5559 5554 5550 5547 5544 5542 5540 5537 5535 5532 5528 5524 5520 5516 5512 5509 5506 5503 5500 5497 5495 5494 5493 5492 5490 5489 5488 5487 5487